METAR|ÜBERSETZT|TAF
EDHK 301320Z 24009KT 9999 FEW029 BKN034 BKN140 18/17 Q1010
Login|Impressum|Kontakt



Buchtipp - Dieter Steffen: Prägung

Lesenswert und spannende Fliegerlektüre. Hier klicken für die Rezension.



Hier erfahren Sie alles über Motorflug Segelflug Fallschirmspringen Ballonfahren




Der LSV-Kiel ist Mitglied im
Luftsportverband Schleswig-Holstein und im
DAeC